CW6899 Weather Reports


time (UTC)temp
F
wind
direction
speed
knots
gust
knots
rain 1hr
in
rain 24hr
in
rain mn
in
humidity
%
barometer
mb
20260505100905 44 68 1.7 1.7 0.00 0.00 0.00 99 1020.3
20260505095905 44 80 0.9 2.6 0.00 0.00 0.00 99 1020.2
20260505093905 44 63 1.7 2.6 0.00 0.00 0.00 99 1020.3
20260505092905 44 57 1.7 2.6 0.00 0.00 0.00 99 1020.4
20260505090905 44 58 1.7 2.6 0.00 0.00 0.00 99 1020.6
20260505085904 44 68 1.7 2.6 0.00 0.00 0.00 99 1020.7
20260505083906 44 71 1.7 2.6 0.00 0.00 0.00 98 1020.9
20260505082905 44 68 1.7 2.6 0.00 0.00 0.00 98 1021.0
20260505081905 44 66 1.7 2.6 0.00 0.00 0.00 98 1021.1
20260505080905 44 57 1.7 2.6 0.00 0.00 0.00 98 1021.0
20260505074905 45 60 1.7 2.6 0.00 0.00 0.00 98 1021.5
20260505073904 45 63 1.7 2.6 0.00 0.00 0.00 98 1021.4
20260505072905 45 70 1.7 2.6 0.00 0.00 0.00 98 1021.5
20260505071905 45 70 1.7 2.6 0.00 0.00 0.00 97 1021.6
20260505070905 44 62 1.7 4.3 0.00 0.00 0.00 97 1021.7
20260505065908 44 67 1.7 2.6 0.00 0.00 0.00 97 1021.6
20260505064905 44 40 1.7 4.3 0.00 0.00 0.00 96 1021.6
20260505063906 44 62 1.7 4.3 0.00 0.00 0.00 96 1021.7
20260505061905 45 69 1.7 2.6 0.00 0.00 0.00 94 1021.5
20260505060904 45 40 1.7 2.6 0.00 0.00 0.00 93 1021.4
20260505055905 46 56 1.7 4.3 0.00 0.00 0.00 93 1021.7
20260505054905 46 57 2.6 2.6 0.00 0.00 0.00 92 1021.6
20260505053905 47 57 1.7 4.3 0.00 0.00 0.00 91 1021.7
20260505052906 47 55 1.7 4.3 0.00 0.00 0.00 91 1021.6
20260505051905 49 81 1.7 1.7 0.00 0.00 0.00 89 1021.8
20260505050904 49 56 1.7 4.3 0.00 0.00 0.00 89 1021.8
20260505034904 53 46 0.9 4.3 0.00 0.00 0.00 82 1022.2
20260505033905 54 37 1.7 4.3 0.00 0.00 0.00 81 1022.0
20260505032905 54 60 1.7 4.3 0.00 0.00 0.00 81 1022.2
20260505031904 55 49 2.6 2.6 0.00 0.00 0.00 80 1022.2
20260505030904 55 73 0.9 4.3 0.00 0.00 0.00 79 1022.4
20260505025905 55 83 0.9 4.3 0.00 0.00 0.00 80 1022.4
20260505024905 54 52 0.9 4.3 0.00 0.00 0.00 82 1022.5
20260505023905 53 41 2.6 4.3 0.00 0.00 0.00 83 1022.6
20260505022905 53 55 2.6 4.3 0.00 0.00 0.00 83 1022.4
20260505021905 54 64 1.7 2.6 0.00 0.00 0.00 81 1022.7
20260505020905 55 60 1.7 4.3 0.00 0.00 0.00 79 1022.9
20260505014905 54 47 1.7 2.6 0.00 0.00 0.00 82 1022.8
20260505013905 54 77 0.9 4.3 0.00 0.00 0.00 80 1022.8
20260505012904 54 63 1.7 4.3 0.00 0.00 0.00 77 1023.1
20260505011744 54 39 2.6 0.0 0.00 0.00 0.00 76 1023.4
20260505010311 55 64 1.7 2.6 0.00 0.00 0.00 77 1023.6
20260505003904 53 61 1.7 2.6 0.00 0.00 0.00 80 1024.0
20260505002905 52 63 1.7 2.6 0.00 0.00 0.00 78 1024.3
20260505001905 52 57 1.7 2.6 0.00 0.00 0.00 77 1024.5
20260505000905 52 62 1.7 2.6 0.00 0.00 0.00 76 1024.4
20260504235905 51 75 0.9 2.6 0.00 0.00 0.00 83 1025.0
20260504232905 49 66 0.9 1.7 0.00 0.00 0.00 91 1025.5
20260504231906 48 80 0.9 1.7 0.00 0.00 0.00 98 1025.3
20260504230905 47 64 0.0 2.6 0.00 0.00 0.00 99 1025.6
20260504225906 47 79 0.9 1.7 0.00 0.00 0.00 99 1025.6
20260504224906 47 77 0.9 1.7 0.00 0.00 0.00 99 1025.7
20260504222905 47 74 1.7 1.7 0.00 0.00 0.00 99 1025.8
20260504221905 46 76 0.9 1.7 0.00 0.00 0.00 99 1025.8
20260504220905 46 79 0.9 1.7 0.00 0.00 0.00 99 1025.9
20260504214905 45 76 0.9 1.7 0.00 0.00 0.00 99 1026.2
20260504213905 45 83 0.9 1.7 0.00 0.00 0.00 97 1026.2
20260504212905 44 77 1.7 1.7 0.00 0.00 0.00 97 1026.2
20260504211904 41 72 0.9 1.7 0.00 0.00 0.00 97 1026.4
20260504210905 38 80 1.7 1.7 0.00 0.00 0.00 98 1026.3
20260504203905 35 82 1.7 1.7 0.00 0.00 0.00 99 1026.6
20260504202912 35 80 1.7 2.6 0.00 0.00 0.00 99 1026.4
20260504201905 35 77 1.7 1.7 0.00 0.00 0.00 99 1026.3
20260504200904 35 72 1.7 2.6 0.00 0.00 0.00 99 1026.3
20260504194905 34 75 1.7 2.6 0.00 0.00 0.00 99 1026.3
20260504193905 34 79 1.7 1.7 0.00 0.00 0.00 99 1026.4
20260504192905 34 77 1.7 1.7 0.00 0.00 0.00 99 1026.5
20260504191905 35 73 1.7 1.7 0.00 0.00 0.00 99 1026.3
20260504190906 35 69 1.7 1.7 0.00 0.00 0.00 99 1026.4
20260504185905 35 69 1.7 2.6 0.00 0.00 0.00 99 1026.4
20260504184904 35 64 1.7 2.6 0.00 0.00 0.00 99 1026.2
20260504183905 35 76 0.9 2.6 0.00 0.00 0.00 99 1026.3
20260504182905 35 77 1.7 1.7 0.00 0.00 0.00 99 1026.4
20260504181905 36 80 1.7 1.7 0.00 0.00 0.00 99 1026.5
20260504180912 36 77 1.7 1.7 0.00 0.00 0.00 99 1026.4
20260504175905 36 86 0.9 1.7 0.00 0.00 0.00 99 1026.3
20260504174905 36 78 0.9 1.7 0.00 0.00 0.00 99 1026.5
20260504173905 36 89 1.7 1.7 0.00 0.00 0.00 99 1026.1
20260504172909 36 68 1.7 1.7 0.00 0.00 0.00 99 1026.3
20260504170906 36 80 1.7 2.6 0.00 0.00 0.00 99 1026.3
20260504150905 37 71 1.7 1.7 0.00 0.00 0.00 99 1027.0
20260504140907 38 71 1.7 1.7 0.00 0.00 0.00 99 1027.3